Regional Weather Roundup
Issued by NWS

Home | Current Version | Previous Version | Graphics & Text | Print | Product List | Glossary On
Versions: 1 2 3 4 5 6 7 8 9 10 11 12 13 14 15 16 17 18 19 20 21 22 23 24 25 26 27 28 29 30 31 32 33 34 35 36 37 38 39 40 41 42 43 44 45 46 47 48 49 50
000
ASUS45 KTFX 221019
RWRMT
MONTANA HOURLY WEATHER ROUNDUP
NATIONAL WEATHER SERVICE GREAT FALLS MT
319 AM MST SAT NOV 22 2014

NOTE: "FAIR" INDICATES FEW OR NO CLOUDS BELOW 12000 FEET WITH NO
SIGNIFICANT WEATHER AND/OR OBSTRUCTIONS TO VISIBILITY.

* THESE STATIONS ARE NOT UNDER NWS QUALITY CONTROL. THEY DO NOT
   REPORT WEATHER SUCH AS PRECIPITATION OR FOG.

MTZ001>007-043-221100-
WEST OF THE DIVIDE
CITY           SKY/WX    TMP DP  RH WIND       PRES   REMARKS
KALISPELL      LGT RAIN  36  36 100 SW8       29.35F WCI  30
MISSOULA       LGT RAIN  39  36  89 E7        29.47R WCI  34
BUTTE          CLOUDY    37  27  67 S12G20    29.54S WCI  29
MULLAN PASS    LGT SNOW  32  28  85 SW14G31   29.37R VSB 1/2  WCI  22
* ESSEX        N/A       32  32 100 N1         N/A
* EUREKA APT   MOCLDY    37  34  89 SE14G23   29.32R WCI  28
* HAMILTON APT CLOUDY    39  36  89 SW7       29.48S WCI  34
* LIBBY APT    MOCLDY    32  30  92 CALM      29.35F
* LINCOLN      N/A       36  31  82 NE3G8      N/A
* LOOKOUT PASS N/A       33  33 100 S8G15      N/A   WCI  26
* PLAINS APT   CLOUDY    34  28  79 N/A        N/A
* POLSON       N/A       36  36 100 S3G12      N/A
* RONAN APT    MOCLDY    41  36  82 S8         N/A
* SEELEY LAKE  N/A       32  31  96 S2         N/A
* THOMP F APT  MOCLDY    30  23  75 SE9G18     N/A   WCI  22
* YAAK HILL    N/A       34  32  92 E1         N/A
$$

MTZ008-052>055-221100-
SOUTHWEST MONTANA
CITY           SKY/WX    TMP DP  RH WIND       PRES   REMARKS
BOZEMAN        CLOUDY    37  28  70 SE6       29.53F WCI  32
DILLON         MOCLDY    36  27  70 SW6       29.59S WCI  31
* W YELLOWSTON CLOUDY    30  27  89 S7G19      N/A   WCI  23
* ENNIS APT    PTCLDY    39  27  62 SE28G39    N/A   WCI  27
* THREE FORKS  PTCLDY    45  30  56 S33G47     N/A
* BOULDER HILL N/A       36  23  59 S18G24     N/A   WCI  26
* MONIDA PASS  N/A       27  25  92 SE27G38    N/A   WCI  11
* RAYNOLDS PAS N/A       32  14  47 SE19G32    N/A   WCI  20
* WHITEHALL    N/A       44  26  49 W13G25     N/A
* WISE RIVER   N/A       33  29  85 S4G10      N/A
$$

MTZ009>010-012-014-046-048-049-054-221100-
EAST SLOPES AND CENTRAL MONTANA
CITY           SKY/WX    TMP DP  RH WIND       PRES   REMARKS
CUT BANK       MOCLDY    36  27  70 SE9       29.24F WCI  29
GREAT FALLS    PTCLDY    45  28  51 SW20G26   29.32F
HELENA         PTCLDY    46  28  50 S13G22    29.41F
MALMSTROM AFB  PTCLDY    45  30  56 SW22G35   29.33F
* CONRAD       MOCLDY    39  34  82 SE15       N/A   WCI  31
* DEARBORN     N/A       49  29  46 S9G17      N/A
* EAST GLACIER N/A       37  30  76 NW29G44    N/A   WCI  25
* MONARCH      N/A       40  22  49 S20G25     N/A   WCI  30
* PENDROY      N/A       38  30  73 S12G17     N/A   WCI  30
* ROGERS PASS  N/A       34  30  85 SE14G28    N/A   WCI  24
* SAINT MARY   N/A       35  31  85 S7G21      N/A   WCI  29
* SWEET GRASS  N/A       36  30  79 S13        N/A   WCI  27
* WHITE SULPH  N/A       40  30  68 S16G31     N/A   WCI  32
$$

MTZ011-013-016-021-035-040-045-047-050-051-221100-
NORTH CENTRAL MONTANA
CITY           SKY/WX    TMP DP  RH WIND       PRES   REMARKS
HAVRE          LGT RAIN  43  32  65 SW14      29.35F
LEWISTOWN      MOCLDY    45  28  51 SW29G38   29.40F
* N BAR RANCH  PTCLDY    45  23  42 SW16G26   29.42F
* CHINOOK      CLOUDY    36  28  73 E3        29.36F
* FORT BENTON  MOCLDY    43  28  56 S5        29.33F
* CHESTER      N/A       39  30  70 S6G11      N/A   WCI  35
* DENTON       N/A       40  26  57 SE11       N/A   WCI  33
* GEYSER       N/A       47  26  44 SW22G34    N/A
* JUDITH GAP   N/A       41  29  62 S24G32     N/A
* LOMA         N/A       45  29  54 S5G10      N/A
$$

MTZ017>020-022>027-061-062-221100-
NORTHEAST MONTANA
CITY           SKY/WX    TMP DP  RH WIND       PRES   REMARKS
GLASGOW        CLOUDY    30  27  89 E13       29.44F WCI  20
GLENDIVE       MOCLDY    32  25  75 S10       29.54F WCI  24
JORDAN         CLOUDY    36  27  70 CALM      29.47F
SIDNEY         PTCLDY    27  23  85 S8        29.54F WCI  19
WOLF POINT     MOCLDY    25  21  85 E6        29.50F WCI  18
* BEAVER HILL  N/A       35  25  67 S15        N/A   WCI  25
* CIRCLE       N/A       35  28  76 S2         N/A
* LINDSAY DVD  N/A       33  25  72 S6         N/A   WCI  27
* NAVAJO       N/A       32  27  82 SW10       N/A   WCI  24
* PLENTYWOOD A PTCLDY    27  25  92 E6        29.50F WCI  20
* POPLAR APT   MOCLDY    30  27  89 N/A       29.50F
* SACO         N/A       31  28  89 NE9        N/A   WCI  23
$$

MTZ028>042-056>058-221100-
SOUTHCENTRAL AND SOUTHEAST MONTANA
CITY           SKY/WX    TMP DP  RH WIND       PRES   REMARKS
BAKER          PTCLDY    27  19  72 E3        29.59F
BILLINGS       CLOUDY    39  25  57 SW16      29.50F WCI  30
LIVINGSTON     MOCLDY    46  27  48 SW37G53   29.45F
MILES CITY     CLOUDY    30  25  82 SE12      29.52F WCI  20
* BIG TIMBER A PTCLDY    45  27  49 NW12      29.48F
* FORSYTH APT  CLOUDY    37  25  62 CALM      29.50F
* LAUREL APT   MOCLDY    39  21  48 SW7        N/A   WCI  34
* ALZADA       N/A       33  24  70 E4         N/A
* HYSHAM       N/A       42  20  41 W2         N/A
* LAME DEER    N/A       38  22  53 S6         N/A   WCI  33
* REED POINT   N/A       31  27  85 SE1G7      N/A
* ROSCOE HILL  N/A       44  17  34 S27G47     N/A
$$

REGIONAL REPORTS...DAKOTAS
CITY           SKY/WX    TMP DP  RH WIND       PRES   REMARKS
WILLISTON      CLEAR     25  21  85 SW3       29.55F
DICKINSON      CLEAR     30  23  75 S10       29.57F WCI  21
BEACH          CLEAR     25  23  92 S8        29.57F WCI  16
CROSBY         CLEAR     27  27 100 S12       29.53F WCI  16
TIOGA          CLEAR     21  21 100 CALM      29.57F
BISMARCK       CLEAR     21  18  88 CALM      29.64F
GRAND FORKS    CLEAR     25  21  85 S7        29.61F WCI  17
FARGO          PTCLDY    27  21  78 S9        29.66F WCI  18
BUFFALO SD     CLEAR     28  21  75 E7        29.53F WCI  21
RAPID CITY     CLEAR     25  19  78 SE3       29.66F
$$

REGIONAL REPORTS...WYOMING/IDAHO/WASHINGTON
CITY           SKY/WX    TMP DP  RH WIND       PRES   REMARKS
GILLETTE       PTCLDY    37  25  62 SW20      29.58F WCI  27
SHERIDAN       MOCLDY    28  21  75 S5        29.55F WCI  22
CODY           MOCLDY    45  23  42 SW17G33   29.59F
YELLOWSTONE LA MOCLDY    28  25  89 VRB5      29.78F WCI  22
SALMON         CLOUDY    28  25  89 NE5       29.63F WCI  22
MULLAN PASS    LGT SNOW  32  28  85 SW14G31   29.37S VSB 1/2  WCI  22
SAND POINT     CLOUDY    34  34 100 S3        29.37F
SPOKANE        PTCLDY    39  37  93 SW20      29.39R WCI  29
$$

REGIONAL REPORTS...ALBERTA
CITY           SKY/WX    TMP DP  RH WIND       PRES   REMARKS
CALGARY        MOCLDY    37  28  70 SW6       29.10F WCI  32
LETHBRIDGE     CLOUDY    41  32  70 S24       29.17F
MEDICINE HAT   MOCLDY    39  32  76 S9        29.26F WCI  33
EDMONTON       MOCLDY    32  30  92 E24G32    29.12F WCI  19
WATERTON GATE  N/A       37  32  82 SW22G35    N/A   WCI  26
CARDSTON       N/A       39  32  76 SW9G17     N/A   WCI  33
MILK RIVER     N/A       37  30  76 S13        N/A   WCI  29
$$

REGIONAL REPORTS...SASKATCHEWAN
CITY           SKY/WX    TMP DP  RH WIND       PRES   REMARKS
SWIFT CURRENT  CLOUDY    28  27  96 S9        29.34F WCI  19
REGINA         PTCLDY    25  25 100 SE8       29.48F WCI  16
VAL MARIE      N/A       30  27  89 SE3        N/A
ASSINIBOIA     N/A       27  23  85 SE10       N/A   WCI  18

$$



USA.gov is the U.S. government's official web portal to all federal, state and local government web resources and services.